Wind_Speed
6 6 5 4 3 3 4 5 6 6 7 8 9 9 9 9 10 11 11 11 12 13 13 13 14 15 15 15 15 15 15 14 13 13 11 9 8 9 11 11 12 14 14 15 16 16 16 16 16 15 15 14 14 14 14 15 16 17 17 16 16 16 17 16 17 17 17 17 17 17 16 16 15 15 15 14 14 14 13 13 13 12 12 12 11
6 6 4 3 3 4 5 7 8 9 9 10 11 11 10 10 11 12 13 14 15 17 17 16 16 16 16 15 15 15 15 15 14 14 13 11 10 10 11 12 13 14 16 17 17 16 17 17 17 16 16 16 15 15 14 15 15 16 17 17 17 17 17 17 17 17 18 17 17 18 17 17 16 16 16 15 15 14 14 14 13 13 12 12 12
7 6 4 3 3 4 6 8 9 9 10 11 12 12 11 12 12 13 14 16 17 18 18 17 16 16 16 15 14 13 13 13 13 13 13 13 11 11 11 13 16 16 17 19 18 17 18 19 18 17 17 17 16 16 15 15 15 16 17 17 17 17 17 17 18 18 18 18 18 18 18 18 18 17 17 16 15 15 15 15 14 14 13 13 12
8 6 5 4 4 5 7 7 8 9 10 10 11 12 12 13 13 13 14 15 15 16 17 17 17 17 16 15 14 12 12 12 11 10 12 13 13 12 12 14 17 17 17 18 20 20 20 20 21 20 19 18 18 18 17 16 16 16 16 17 18 18 18 18 18 18 18 18 19 19 19 19 18 18 18 17 17 16 16 16 15 15 14 14 13
9 7 6 5 5 6 7 7 8 10 10 9 10 11 11 11 11 11 12 13 14 15 17 18 18 17 17 17 16 14 14 13 12 11 10 11 12 12 13 15 17 17 17 18 21 23 22 23 25 24 21 20 19 19 19 18 16 17 17 18 19 19 20 20 19 19 19 19 19 19 20 19 19 19 18 18 18 18 17 17 16 16 16 15 15
9 8 8 7 6 6 7 8 10 11 11 10 10 10 9 8 9 9 11 12 13 15 16 17 16 16 15 16 16 16 16 15 15 14 14 13 12 12 11 13 16 17 17 18 21 22 22 23 26 29 26 22 21 20 21 21 19 17 17 18 19 20 20 21 21 21 20 20 20 20 21 21 20 20 19 19 19 19 19 18 18 18 17 17 17
10 10 9 8 7 7 7 8 11 12 12 12 11 9 7 7 8 9 10 12 13 14 15 15 15 14 14 14 14 15 15 15 15 14 14 14 13 12 11 12 15 16 16 16 18 20 22 21 23 31 31 26 23 22 21 21 21 20 19 19 19 20 21 22 22 23 22 22 21 21 22 22 22 22 21 20 20 21 21 20 19 19 19 19 18
12 11 11 10 9 8 8 9 11 12 12 11 9 8 8 8 9 9 10 11 12 13 14 13 13 12 12 12 12 13 13 13 13 12 12 11 11 10 10 11 14 16 16 15 15 17 20 22 25 29 31 28 25 24 22 21 22 22 21 20 20 21 22 22 23 23 23 24 24 23 23 23 23 23 22 22 21 21 22 21 21 20 20 20 20
16 14 12 11 11 10 10 11 11 10 10 9 9 9 9 9 10 10 10 10 11 12 13 12 11 10 9 9 9 10 10 10 10 10 10 9 8 8 7 8 10 13 16 16 16 16 16 20 23 26 28 27 27 27 26 23 22 23 23 22 21 22 23 23 23 24 24 24 25 25 25 24 24 24 24 23 23 22 22 22 22 22 21 21 21
18 16 14 13 11 11 10 10 10 9 9 9 9 10 10 11 10 11 11 9 9 10 11 12 10 9 8 7 7 7 7 7 8 7 8 7 6 6 7 6 6 8 11 13 14 15 16 18 20 22 23 23 26 30 31 29 25 24 24 24 23 23 24 24 24 24 25 25 26 26 27 26 26 26 25 25 25 24 24 23 23 23 22 22 22
17 16 14 12 10 9 9 8 9 10 10 9 9 11 12 11 10 10 10 9 9 9 9 11 11 9 9 8 7 7 7 6 5 5 5 5 5 6 7 6 5 5 6 8 10 12 14 16 17 19 21 21 24 29 31 32 30 27 26 26 25 25 25 25 26 25 25 26 26 27 28 29 29 28 27 27 26 26 25 25 24 24 23 23 22
16 13 9 8 8 7 6 7 9 10 10 9 10 12 12 11 10 10 10 10 9 8 9 11 12 11 10 8 6 6 5 2 3 5 5 5 6 7 7 7 6 4 4 5 7 10 12 13 14 16 19 21 23 25 26 28 29 28 29 30 29 28 27 26 27 28 27 27 27 28 28 30 30 30 29 28 28 28 28 27 26 25 25 24 23
9 8 8 7 6 5 7 9 11 11 10 9 10 12 11 10 11 10 10 11 9 7 9 11 12 12 11 8 5 4 3 1 3 7 7 5 6 7 8 8 7 6 5 7 9 10 11 12 12 14 15 17 19 20 22 24 25 28 31 32 31 30 30 29 29 29 29 28 29 29 29 29 30 31 31 31 30 30 29 29 28 27 26 25 24
7 8 7 6 7 9 11 12 13 12 10 9 10 11 10 10 11 10 9 11 10 7 8 9 10 12 13 11 7 4 1 2 3 8 6 3 6 8 9 9 9 8 7 8 10 11 11 10 9 10 12 13 14 14 15 16 19 24 28 31 32 31 30 31 31 30 29 29 30 31 31 31 30 30 31 32 32 32 31 31 30 30 29 27 27
7 7 8 9 11 13 13 12 12 11 10 10 10 10 10 11 11 11 11 11 10 7 6 7 7 9 11 12 11 8 3 1 5 7 4 4 7 9 10 10 10 9 9 10 11 11 11 10 10 9 10 11 12 13 12 11 12 15 21 26 30 32 31 31 31 30 29 30 31 31 32 34 32 31 31 32 33 33 33 33 32 31 31 30 29
9 9 10 12 13 12 11 11 10 9 9 9 10 10 11 12 11 12 11 10 8 6 4 5 6 7 8 8 10 9 7 7 9 6 4 7 7 8 9 9 10 9 9 10 11 11 11 11 11 11 11 12 13 13 13 12 11 12 15 19 24 30 32 32 32 31 30 31 33 33 33 33 32 33 32 32 32 33 34 34 33 33 32 32 31
11 11 12 12 12 10 10 10 9 9 8 9 10 10 10 11 11 10 10 8 7 5 4 5 6 6 6 5 6 7 7 11 11 7 6 7 6 8 8 9 10 9 10 10 10 11 10 10 11 11 12 12 13 14 14 13 12 13 15 16 19 25 29 31 32 32 32 33 34 36 36 34 33 33 34 33 33 33 34 34 34 34 34 33 32
12 12 12 11 10 10 9 8 8 7 7 7 8 9 9 9 9 9 8 7 8 7 6 6 7 7 6 4 3 4 6 9 10 9 8 7 7 9 8 9 10 10 10 11 10 10 10 10 10 11 12 13 14 15 15 15 15 16 17 17 17 20 24 27 30 32 34 34 34 36 38 38 35 33 34 34 34 34 34 34 34 34 34 33 33
13 13 12 11 9 8 7 6 6 6 6 6 7 7 8 8 8 8 7 7 8 9 8 7 7 6 5 3 2 4 6 6 8 10 11 10 9 9 9 10 11 11 11 11 12 12 12 12 11 11 12 13 14 15 16 17 19 20 20 19 18 18 21 23 26 30 32 34 34 35 36 38 37 34 34 34 35 35 34 35 34 34 34 33 33
11 11 11 10 9 8 7 6 5 5 5 5 6 7 7 7 6 6 6 7 7 7 7 6 4 2 2 2 3 5 6 5 6 8 10 12 12 11 11 11 11 11 12 12 13 15 15 15 14 13 12 12 13 14 17 18 20 21 21 21 20 19 20 21 23 26 30 33 35 35 35 37 37 36 35 36 37 37 36 35 35 34 34 34 33
10 10 9 9 8 8 8 7 5 5 5 5 5 5 6 6 4 3 4 5 6 5 4 3 2 0 0 2 4 5 5 5 6 7 9 11 14 15 16 15 13 13 13 14 15 16 18 18 17 16 14 13 12 13 14 17 19 21 22 22 21 21 21 22 23 24 27 31 33 34 33 35 37 36 36 36 37 38 38 36 36 35 35 34 34
11 10 10 9 10 9 8 6 5 5 5 5 4 4 4 4 3 2 3 4 4 3 3 2 1 1 1 3 5 6 6 5 6 9 10 11 14 17 18 18 19 18 17 17 17 17 18 18 18 17 16 14 13 12 13 14 16 19 21 22 22 22 22 22 23 24 25 28 31 33 34 34 36 36 37 37 38 39 39 38 37 36 36 35 34
12 11 10 10 11 10 8 7 7 6 5 5 5 4 4 4 3 2 3 4 4 3 3 2 2 2 3 4 5 6 6 6 7 10 12 13 15 17 16 17 19 21 21 21 20 18 18 17 17 18 17 16 15 14 14 14 15 16 18 19 20 22 23 22 23 23 25 27 29 32 34 35 37 37 37 37 37 38 39 40 39 38 37 36 35
13 12 11 11 11 11 9 8 7 7 7 6 6 5 4 3 2 2 2 3 3 4 4 3 3 4 4 4 5 6 7 7 9 10 12 14 16 17 17 17 19 21 22 22 21 19 18 17 17 17 17 17 17 17 17 16 16 16 17 18 19 21 22 23 24 24 24 26 28 31 33 35 36 37 37 36 36 37 38 39 40 39 38 37 36
12 11 11 11 11 9 8 7 7 7 7 7 6 6 5 3 2 1 2 4 4 5 5 5 5 5 5 5 6 7 8 8 9 10 12 13 15 16 17 18 20 22 23 23 22 20 19 18 18 17 17 18 18 19 20 20 19 18 19 20 21 22 23 24 26 27 27 27 28 30 33 34 35 36 37 37 36 37 37 38 39 39 39 39 37
12 12 11 10 9 7 7 7 7 8 8 7 7 6 5 4 3 2 3 4 5 6 6 7 8 8 7 7 8 9 9 10 10 11 12 13 14 16 17 18 20 22 23 24 24 22 20 19 18 18 19 19 19 20 21 21 21 20 20 21 23 24 25 27 27 28 29 30 30 30 32 34 35 36 36 37 37 37 37 38 39 39 39 39 39
13 13 11 9 8 7 7 7 7 7 7 7 7 7 6 6 6 5 4 5 6 7 7 8 9 10 10 10 11 11 12 12 12 12 12 13 15 16 17 19 22 24 25 25 25 24 22 21 20 19 20 22 22 22 23 23 23 23 22 21 23 24 26 28 30 31 31 32 33 33 33 34 35 36 37 38 38 38 39 39 40 40 40 39 40
14 14 13 11 9 9 8 6 5 5 6 7 8 8 8 8 8 8 7 6 7 8 9 10 11 12 12 12 13 14 14 15 14 14 14 15 15 16 17 19 21 24 27 27 28 27 23 23 23 22 22 24 24 24 25 25 25 25 24 24 24 24 25 27 30 32 33 34 34 35 35 35 36 37 38 38 39 39 39 41 42 42 41 40 40
15 15 14 13 11 9 8 6 6 7 8 8 9 9 10 10 10 10 10 9 10 10 10 11 12 13 14 14 14 15 16 17 17 16 16 16 16 17 18 19 20 23 26 27 29 28 23 23 25 25 24 24 25 25 26 27 27 27 28 27 27 26 25 26 28 30 33 34 35 36 37 37 37 38 39 40 40 40 40 41 42 43 43 42 41
15 15 14 13 11 8 7 7 8 11 11 10 11 11 12 12 12 13 13 12 12 12 12 13 13 13 14 15 15 15 17 19 18 17 18 18 18 18 19 19 19 21 24 26 29 29 24 22 24 26 27 26 26 27 29 30 30 30 31 31 30 30 29 27 27 29 31 34 35 36 38 39 40 40 40 41 41 42 42 42 43 44 44 43 41
15 14 13 11 9 7 7 8 10 12 12 12 12 12 12 12 13 13 13 12 12 12 12 13 13 13 14 15 16 17 19 21 19 18 20 19 19 19 20 20 20 22 23 24 28 29 25 23 24 26 28 29 29 30 31 32 32 33 35 35 34 33 33 31 28 28 30 32 35 36 37 38 41 42 42 42 42 43 44 44 43 43 44 44 42
14 13 11 9 7 7 7 8 9 11 12 11 11 10 10 10 11 11 11 11 12 12 12 13 14 14 15 16 17 18 22 23 20 20 22 22 21 21 21 21 22 23 23 23 27 30 26 24 25 27 29 30 31 31 33 35 34 36 38 38 37 36 35 35 32 29 29 31 34 36 37 37 39 42 43 43 43 43 45 45 44 43 43 43 43
14 12 10 8 8 7 7 8 8 9 10 9 9 9 9 9 9 9 9 10 12 12 13 14 15 16 17 18 19 19 21 22 21 21 23 23 23 22 22 22 23 25 25 25 27 30 29 26 27 29 30 31 31 32 35 38 38 39 41 41 40 39 38 37 36 32 29 30 32 35 36 36 38 41 43 44 45 44 44 46 45 43 43 43 43
14 12 10 8 8 8 7 7 8 8 8 8 8 9 9 10 10 10 11 12 13 13 14 15 16 17 18 18 18 18 20 21 21 22 23 23 22 22 22 22 23 25 27 27 27 30 33 31 31 31 31 31 32 33 34 38 40 42 44 44 44 43 41 40 38 36 32 30 31 33 35 36 37 39 42 44 45 45 45 46 46 44 43 43 43
14 12 10 9 9 8 8 8 7 7 7 7 8 8 9 10 11 12 12 12 13 14 15 15 15 16 17 17 17 18 19 21 22 22 22 22 22 22 23 23 24 26 27 28 29 31 34 35 34 33 32 32 34 33 34 36 40 43 45 47 47 46 45 43 41 39 35 31 30 32 34 36 37 38 40 42 44 46 46 46 46 45 45 44 44
14 12 11 10 10 10 9 8 7 6 7 8 9 10 11 12 12 12 12 12 12 13 14 14 14 15 16 17 17 18 20 22 23 23 23 23 22 23 24 24 26 27 27 28 30 32 34 36 36 34 33 33 33 32 33 37 41 44 46 48 49 48 48 46 42 40 37 33 30 31 34 36 37 38 39 41 42 44 45 46 46 46 47 47 46
14 12 12 11 11 11 10 8 8 8 8 10 10 11 11 12 13 12 11 10 10 11 11 12 13 14 15 16 16 16 18 20 22 23 23 22 21 22 23 23 25 26 27 28 29 31 33 36 36 35 33 33 31 31 33 37 43 46 48 50 50 50 50 48 45 41 37 35 33 32 33 36 37 38 39 40 41 42 43 45 46 47 48 49 48
15 13 13 12 12 11 10 9 9 9 10 11 11 11 12 13 12 11 9 9 9 10 11 12 13 15 16 17 16 16 17 19 20 21 21 21 21 22 22 22 22 23 25 26 27 28 31 34 35 35 34 32 31 31 33 37 43 47 50 52 53 52 51 50 48 43 38 36 35 33 33 35 37 38 38 40 41 41 42 43 44 46 48 50 51
16 15 14 13 12 12 11 10 10 11 11 12 11 11 12 12 11 10 9 10 11 12 13 15 16 18 18 19 18 18 18 19 19 20 21 22 23 23 23 21 21 21 23 23 24 26 29 31 32 33 33 32 31 32 34 38 42 45 47 51 54 54 52 51 50 45 41 38 36 34 34 34 36 38 37 39 41 41 41 42 43 44 46 48 51
17 16 14 13 13 14 12 11 10 11 12 12 11 11 12 12 11 11 11 12 13 15 16 18 19 19 20 20 20 21 20 21 21 21 22 23 24 25 24 22 21 21 22 23 25 25 26 27 29 30 31 31 31 32 36 39 42 44 45 47 52 55 53 51 50 47 44 42 39 36 34 33 35 37 37 38 40 42 42 42 43 44 44 46 49
17 15 14 14 15 16 14 12 11 11 11 11 10 11 12 12 11 12 13 14 16 17 19 20 21 20 21 21 22 22 23 23 24 23 22 23 24 25 24 23 22 22 22 24 25 25 26 27 29 29 29 30 31 33 36 39 41 43 45 46 50 53 51 50 50 47 44 43 42 40 35 31 32 36 37 37 39 41 42 42 44 45 45 44 46
17 15 15 16 17 17 15 13 12 11 11 10 10 11 12 12 12 13 15 16 18 20 21 21 21 20 20 21 22 23 23 24 24 24 23 22 22 24 24 24 23 23 23 24 24 25 26 28 29 28 28 30 32 33 37 40 40 42 44 46 49 52 51 50 50 47 43 41 42 42 37 31 29 32 35 36 37 39 41 42 44 45 45 44 44
17 16 16 17 18 17 16 14 14 12 11 11 11 12 13 14 14 15 16 19 20 21 22 22 21 20 20 21 21 21 22 22 22 22 22 21 21 22 23 23 23 23 23 24 25 25 26 28 28 27 29 31 32 32 36 40 41 41 44 46 47 50 50 49 49 48 45 41 40 42 43 36 31 31 33 34 36 37 39 41 43 44 45 45 44
18 17 18 18 18 17 15 15 14 12 12 12 13 14 16 16 17 17 19 21 22 23 24 23 21 21 21 22 21 20 20 20 20 21 21 21 21 21 21 21 21 22 23 24 25 26 27 28 28 29 30 32 33 33 35 40 41 42 45 48 47 47 48 48 48 49 48 43 41 44 46 40 34 33 34 34 34 35 36 39 41 42 44 45 46
19 19 19 19 18 16 15 15 14 13 13 14 15 17 18 19 20 20 21 23 25 25 25 24 23 23 23 23 22 21 20 20 20 21 22 23 23 23 22 22 22 22 23 25 26 27 28 29 30 31 32 33 33 34 36 38 42 44 46 49 48 47 48 49 50 50 48 44 42 43 46 43 37 35 35 35 34 32 33 36 38 39 41 43 45
21 21 20 20 18 16 15 15 15 15 15 15 17 19 21 22 22 23 23 25 27 27 26 26 25 24 24 24 23 22 21 21 22 22 23 25 26 26 25 25 25 24 25 26 27 28 28 28 31 32 32 33 34 36 38 39 41 44 47 50 50 50 52 52 52 51 47 42 40 41 44 45 40 36 37 36 34 31 30 33 36 38 38 39 42
23 22 21 20 18 17 17 16 15 16 17 18 21 22 22 23 24 25 26 26 27 27 26 27 26 24 24 24 23 23 22 23 23 23 24 25 26 27 27 27 27 27 28 28 28 27 27 27 29 31 33 34 36 38 40 40 42 45 48 51 52 53 55 54 52 51 47 41 38 37 41 43 39 37 38 37 34 32 29 30 33 36 36 36 38
23 22 20 19 19 19 19 18 18 19 20 20 22 22 22 23 25 26 26 26 26 25 25 26 26 25 24 24 24 23 23 24 24 24 25 26 26 26 27 28 29 30 31 30 28 27 26 26 27 30 33 34 36 38 40 42 45 47 49 51 52 53 55 53 51 51 48 42 37 36 39 41 38 36 36 35 33 31 28 28 30 33 34 34 34
24 23 21 20 20 20 20 22 22 21 21 20 21 20 20 20 22 23 23 23 24 23 23 25 26 25 24 25 25 24 23 24 24 26 26 26 26 26 27 29 31 32 32 31 28 27 26 26 27 29 31 33 34 36 39 43 45 45 46 50 52 52 52 52 50 50 47 42 38 36 36 37 35 33 33 33 32 29 27 27 29 30 31 32 33
25 23 22 22 22 24 26 27 24 21 21 22 23 22 19 17 19 21 22 22 22 22 22 24 26 26 26 26 26 25 24 24 25 26 26 26 26 27 28 29 31 32 32 31 29 27 26 26 27 29 30 31 32 34 38 41 40 39 42 46 50 50 51 51 51 49 45 41 39 35 33 34 32 30 31 31 31 30 27 26 28 29 29 30 31
27 26 26 27 27 28 29 27 23 21 21 22 23 22 19 17 19 20 22 22 22 22 23 24 26 27 27 26 25 25 26 26 25 25 24 24 25 26 27 28 30 30 30 30 29 29 29 28 28 28 28 29 31 34 37 38 36 36 39 43 47 49 51 51 49 45 40 39 37 32 30 31 29 28 28 27 28 28 27 26 28 28 27 28 30
Wind_Direction
203 203 208 214 226 248 272 281 288 300 306 311 309 307 303 295 291 292 292 283 286 299 300 299 300 299 296 292 288 285 283 282 281 274 267 259 255 256 257 254 249 251 248 237 233 237 240 239 236 234 233 231 229 228 227 227 225 226 227 227 226 221 218 218 218 221 224 227 230 231 232 233 234 236 238 237 236 237 237 237 236 237 242 244 244
212 214 221 229 257 279 290 291 296 302 306 306 303 302 299 291 284 283 283 280 283 294 299 298 298 299 298 294 288 284 283 281 277 268 260 254 248 246 248 254 252 248 246 241 237 240 243 242 239 238 236 233 233 232 230 230 229 230 230 230 231 229 226 223 221 221 223 226 229 231 233 235 237 239 240 239 238 238 237 235 236 237 241 244 246
219 224 236 253 277 294 295 296 301 302 303 302 300 300 298 293 285 282 282 280 285 292 296 297 297 299 298 298 292 287 286 283 278 267 257 252 247 243 241 249 253 249 244 240 238 241 244 244 243 243 241 237 236 235 233 233 233 233 234 234 234 234 233 231 228 226 225 225 227 230 233 235 238 240 241 240 239 238 235 233 235 236 239 242 245
230 237 257 282 295 299 296 298 302 296 296 296 294 293 290 288 283 282 285 286 290 293 295 298 299 300 297 296 295 293 290 286 285 275 261 255 253 250 243 245 252 253 250 244 240 239 240 243 246 247 246 243 240 239 236 236 238 237 238 238 238 238 237 237 235 234 231 229 229 229 232 234 236 239 240 241 240 238 236 236 238 240 242 244 246
242 251 267 283 292 297 301 305 303 296 297 297 292 291 288 287 286 288 291 291 294 296 298 301 301 300 295 292 292 292 291 288 288 284 274 266 262 259 250 247 252 255 255 249 244 242 241 241 244 246 250 250 245 244 240 239 242 241 242 241 240 241 240 240 239 239 239 237 235 233 233 233 235 236 238 240 240 239 239 241 243 246 248 248 248
257 264 270 275 281 291 302 306 303 300 301 301 297 295 292 293 293 291 290 291 296 298 299 299 299 299 295 293 294 294 292 289 287 285 283 278 272 270 265 259 258 257 255 251 247 247 245 242 243 242 245 250 248 246 245 243 245 245 246 245 243 243 243 244 243 243 243 242 242 241 239 237 236 237 238 239 240 241 242 245 248 250 251 251 250
266 268 270 271 277 285 293 297 297 296 295 296 294 291 293 292 286 285 288 293 299 300 298 297 297 297 297 296 298 299 300 300 299 297 295 291 284 279 277 270 265 260 257 257 252 249 248 247 247 242 239 243 245 246 248 247 247 246 248 249 248 247 246 245 246 246 246 245 245 245 246 244 241 239 239 240 240 242 244 247 250 252 252 252 251
265 264 268 266 269 274 281 287 287 287 286 284 281 280 288 290 289 290 291 294 296 297 299 300 299 298 298 298 299 302 308 314 317 317 315 310 302 290 281 272 267 263 258 257 252 250 250 248 250 245 240 243 245 246 250 252 251 248 248 249 250 251 250 249 248 248 248 248 248 247 248 249 247 244 241 241 241 242 244 246 249 251 253 254 254
252 251 252 254 261 266 272 281 282 282 278 271 269 276 287 293 297 296 294 296 299 301 302 304 306 305 304 301 300 304 310 319 326 327 324 320 317 310 301 287 276 271 265 262 257 253 252 252 256 255 251 252 252 249 250 252 253 251 251 250 250 252 252 252 252 252 251 251 251 250 249 249 250 249 245 243 242 243 245 246 248 250 253 254 256
247 246 246 249 257 263 271 279 285 288 281 269 270 280 290 298 300 297 299 303 307 311 309 308 311 312 314 307 301 307 311 320 328 331 330 328 333 336 334 321 297 283 275 273 271 268 265 266 269 269 266 265 260 253 249 250 251 251 252 251 250 251 253 254 254 255 255 253 253 252 251 250 250 250 250 249 246 245 246 247 249 250 252 254 256
255 257 255 248 247 259 271 280 293 296 285 271 273 287 295 299 299 299 305 309 312 319 319 316 316 317 319 315 311 314 316 325 341 355 357 353 355 349 345 340 320 302 290 279 274 272 269 268 269 268 265 261 259 255 251 252 252 252 254 252 250 250 251 253 255 256 257 257 257 255 254 252 251 250 250 251 251 250 249 249 251 251 253 254 256
258 255 245 231 239 262 275 285 301 302 289 272 270 281 290 296 301 306 310 310 310 319 326 321 318 322 323 321 324 325 323 344 36 23 8 352 348 342 335 337 334 333 332 314 293 277 266 262 264 265 262 258 257 258 257 254 252 252 254 252 250 250 250 251 252 252 254 257 259 259 258 256 254 252 251 251 251 252 252 252 253 254 255 255 257
238 218 210 227 255 287 286 288 302 303 291 277 272 278 285 295 303 308 311 310 308 317 327 320 318 325 328 330 343 349 343 113 68 4 345 336 341 337 328 325 326 327 327 326 321 308 290 279 274 270 270 268 266 267 268 264 258 254 253 252 250 250 251 252 252 251 250 252 255 258 260 260 259 256 254 253 253 252 253 253 254 255 256 256 257
201 204 226 262 287 300 297 297 305 302 289 279 277 283 291 298 304 309 313 312 311 319 324 318 320 327 329 336 347 8 31 160 26 353 334 326 333 331 328 323 320 319 315 313 316 317 313 310 303 288 279 274 277 284 284 280 271 261 255 252 249 248 249 251 253 254 253 252 253 254 256 259 260 260 258 256 256 255 254 254 254 255 256 257 258
216 234 260 279 291 298 300 304 308 300 286 280 281 289 301 306 310 318 317 312 314 321 319 313 324 327 329 337 338 345 351 283 352 356 331 320 325 326 328 326 324 323 320 317 316 318 321 326 326 316 299 286 292 299 292 288 288 272 258 252 250 248 250 251 252 253 254 254 254 252 252 253 256 260 261 258 258 257 256 256 255 255 256 257 258
237 251 266 278 288 294 298 303 305 297 287 288 294 302 309 309 314 319 315 315 323 330 320 307 320 326 331 337 330 336 347 336 346 7 356 335 333 341 342 337 337 334 330 327 324 324 320 318 318 316 310 300 302 304 293 287 292 286 270 259 252 250 251 252 253 253 254 256 256 255 254 251 250 254 258 259 259 258 258 257 257 257 256 257 257
247 257 266 274 280 284 287 288 291 291 285 286 292 299 302 305 312 313 310 316 320 316 308 296 300 311 325 337 331 335 342 337 343 2 5 359 4 5 360 353 350 346 343 339 334 330 319 310 305 301 299 293 291 292 289 286 286 285 280 271 259 253 250 249 251 254 255 255 256 257 257 254 250 251 253 256 258 258 258 258 257 257 257 257 257
253 256 259 262 266 268 266 265 272 275 268 268 274 281 287 294 301 301 302 307 297 291 295 292 291 300 311 330 338 332 338 343 346 347 348 1 11 3 356 355 353 347 345 342 337 335 327 316 305 295 290 284 281 280 281 280 278 277 277 277 271 262 255 252 252 255 256 256 255 255 256 256 254 250 250 251 255 257 257 257 257 257 257 257 257
245 245 248 252 254 253 249 253 263 260 259 265 270 276 280 286 292 292 292 289 282 283 290 296 298 300 303 315 337 343 350 356 354 347 341 342 351 356 352 354 356 350 348 348 343 339 336 328 317 304 294 287 282 277 273 271 269 269 270 272 273 269 263 259 257 257 257 257 257 256 255 256 255 250 248 249 251 254 256 256 256 256 256 256 256
238 241 245 248 244 241 249 262 265 262 269 276 281 285 289 294 295 287 277 272 273 279 291 307 314 303 291 326 354 358 359 0 360 355 345 338 340 347 348 349 358 357 352 355 353 348 344 340 333 321 307 295 287 279 274 268 265 265 266 266 266 265 265 263 262 261 259 254 253 255 256 256 256 253 250 249 251 253 254 255 256 256 255 255 255
247 249 248 246 241 244 257 264 262 265 270 272 278 284 288 295 296 286 272 269 276 288 307 327 330 330 72 6 1 357 359 0 355 353 348 343 343 347 347 343 346 353 351 349 351 350 347 345 343 336 324 310 299 289 281 274 268 265 264 263 260 259 261 262 263 263 262 256 252 253 255 256 257 256 252 251 252 253 253 253 255 255 255 255 254
257 255 252 249 247 252 260 260 259 266 269 269 273 271 264 265 265 278 290 290 299 315 329 323 278 265 324 350 349 345 351 354 344 345 349 347 343 345 348 343 339 341 343 343 343 345 345 344 344 345 342 333 320 308 296 284 276 269 264 261 257 254 255 258 261 263 263 259 255 255 256 257 257 256 254 253 253 252 251 250 252 254 254 254 253
253 251 251 250 250 255 259 259 264 270 268 262 259 247 231 227 230 251 292 308 318 324 319 275 261 284 315 338 339 331 333 334 329 336 342 341 337 337 340 338 334 333 335 336 337 341 343 342 343 347 352 351 345 335 320 303 288 278 269 264 259 255 252 251 254 259 262 260 258 258 258 257 256 255 254 252 251 250 250 250 250 251 251 252 252
245 250 251 247 250 257 257 257 264 268 263 257 249 236 225 223 228 249 298 319 328 325 310 274 271 293 313 326 325 318 318 319 321 327 331 331 330 329 328 328 327 328 329 330 332 336 339 339 341 344 348 352 356 355 346 330 312 294 280 269 262 257 252 250 249 251 256 258 259 258 258 257 255 253 251 250 249 250 251 252 251 250 249 250 250
243 255 253 246 252 257 252 250 259 265 260 253 244 234 228 224 225 263 316 326 331 326 312 297 291 294 306 313 310 308 308 309 314 318 321 324 322 319 319 321 322 324 327 329 330 332 333 335 337 338 339 343 349 353 353 346 336 318 296 279 268 261 255 252 250 250 250 252 255 256 257 256 255 252 250 249 248 250 252 253 252 251 250 249 247
244 254 251 247 251 252 249 247 252 256 250 244 241 235 226 214 215 243 288 308 313 316 315 306 297 293 297 303 303 301 298 299 305 308 311 315 314 312 313 315 318 320 324 327 328 330 330 330 333 336 335 337 342 344 345 346 344 337 321 299 282 272 264 259 255 254 252 250 251 253 254 255 255 252 250 249 249 248 249 250 251 250 250 249 246
242 248 245 239 239 241 245 244 242 244 241 239 240 239 230 219 223 237 253 281 291 297 306 303 297 294 292 293 295 294 292 294 298 302 306 309 309 307 309 313 317 320 323 324 324 328 330 329 329 333 335 334 338 339 338 339 340 340 336 322 302 286 275 269 263 260 259 255 251 250 250 252 253 253 251 250 249 247 245 245 247 248 247 247 246
241 243 239 233 233 237 243 243 243 254 255 247 244 244 239 233 235 241 251 271 280 284 291 294 295 292 288 287 289 289 289 291 295 297 300 305 307 305 307 311 316 320 322 322 321 324 330 331 328 331 336 334 334 335 335 335 335 336 337 334 323 306 290 279 271 265 262 260 255 251 249 248 250 251 250 249 248 247 244 243 244 245 245 244 245
236 236 233 230 229 233 240 250 264 277 277 267 259 257 251 245 243 246 253 264 273 279 283 288 293 290 284 283 285 288 289 290 294 295 295 300 304 304 305 307 312 318 319 317 316 318 326 332 329 331 335 332 330 332 333 333 334 334 335 335 333 325 310 292 280 270 263 260 258 255 251 248 247 248 249 249 247 246 244 243 244 244 243 242 243
228 226 224 222 222 227 237 251 262 271 275 273 270 267 262 257 253 254 258 264 272 278 283 289 294 294 289 285 285 288 287 285 287 291 293 296 300 303 303 302 306 314 315 311 309 312 321 330 331 331 331 329 326 326 329 331 332 333 334 333 332 330 323 309 292 281 269 262 259 258 256 251 248 246 247 248 247 246 245 244 245 244 241 241 242
221 218 214 211 215 227 243 254 262 268 272 271 270 271 270 268 264 264 267 269 273 278 283 290 297 298 294 288 287 287 283 280 283 288 288 288 291 296 299 298 301 307 311 307 303 308 318 325 328 330 328 325 324 323 325 327 329 331 332 331 330 328 325 319 305 290 279 269 261 259 259 256 251 248 246 246 246 245 244 244 244 242 239 238 240
213 211 208 206 214 228 241 254 263 268 269 267 267 272 275 275 272 271 271 272 277 281 284 291 299 301 297 291 289 289 283 282 287 289 287 286 285 287 290 293 295 300 305 302 298 304 314 319 323 328 327 323 322 322 324 325 326 328 329 328 328 326 323 321 314 300 287 277 267 260 259 258 254 250 247 246 245 245 244 243 242 239 236 235 237
207 204 201 203 210 221 232 244 257 263 263 261 262 267 270 271 271 273 274 275 278 283 288 293 297 300 300 294 291 290 287 287 292 294 295 294 289 287 290 291 291 294 298 299 296 300 307 312 317 323 325 323 321 323 326 325 325 327 327 326 327 325 322 320 316 307 293 282 273 265 259 258 255 252 249 246 245 244 243 242 241 238 235 234 235
203 202 199 200 207 217 226 238 250 255 258 258 258 262 266 269 271 272 273 276 281 288 293 296 298 300 301 296 291 290 289 291 295 297 298 298 293 292 293 292 290 290 292 293 294 295 300 305 310 315 321 322 319 322 326 325 325 326 325 325 325 324 322 319 315 309 300 288 278 270 262 257 255 253 251 248 246 244 244 243 242 239 236 235 234
202 204 205 208 216 225 233 241 246 249 252 251 253 262 269 272 275 276 278 283 289 295 296 295 298 302 302 299 295 291 289 289 291 294 295 295 294 294 295 294 292 290 290 290 290 291 294 299 304 309 316 320 318 320 324 324 325 326 325 325 324 323 321 319 315 309 301 291 281 272 265 259 255 254 252 249 247 244 244 244 243 240 237 235 234
205 208 211 219 227 233 240 244 248 253 254 254 259 267 273 279 285 288 288 289 292 295 295 295 299 303 303 302 300 296 291 290 290 291 292 292 294 295 297 298 296 294 292 289 288 288 290 293 299 304 309 316 318 320 323 324 325 325 325 325 325 324 321 318 315 310 302 293 283 274 267 260 256 255 252 250 247 245 245 244 244 241 238 236 234
209 211 217 226 232 237 242 244 250 256 256 259 265 272 282 291 293 291 286 286 291 294 295 298 303 305 303 302 304 301 296 294 294 293 291 290 292 295 297 300 300 299 297 293 290 289 288 290 296 300 304 312 315 317 323 327 327 326 327 327 326 324 321 318 315 311 304 296 286 277 269 261 257 255 253 249 247 245 245 244 244 242 240 237 235
211 214 219 227 234 241 246 248 252 256 258 262 267 277 289 293 288 281 276 279 289 296 301 306 306 303 300 299 300 299 296 296 296 294 292 290 291 293 295 297 300 302 300 299 296 290 287 289 293 297 302 309 311 314 324 330 328 327 328 327 325 322 319 316 313 310 307 300 291 282 273 264 258 255 253 249 247 245 245 244 243 243 241 239 236
213 215 220 227 238 245 246 246 251 255 256 258 265 278 288 287 277 270 272 281 289 294 299 302 301 298 296 295 294 293 292 294 295 293 291 289 290 292 293 294 297 298 298 298 297 293 289 289 291 295 301 306 307 314 326 331 328 327 327 324 320 319 317 314 311 308 307 305 298 287 277 268 260 256 253 249 246 245 244 242 241 242 242 241 237
215 216 219 228 241 245 241 241 250 255 254 254 261 273 282 281 271 268 275 283 288 292 294 297 298 296 293 292 291 290 288 288 290 291 289 288 288 288 289 290 291 292 292 291 293 295 293 291 292 295 300 303 305 315 326 329 325 324 326 321 315 315 315 313 309 306 306 306 304 296 282 270 261 256 254 251 246 244 243 241 240 239 240 240 237
217 217 219 231 242 242 237 241 251 254 253 254 259 268 276 279 271 268 277 284 289 290 291 294 297 296 292 290 288 287 285 285 286 288 289 287 285 284 284 285 285 286 287 288 289 292 294 293 293 296 299 299 303 314 324 326 323 322 324 320 313 312 312 310 307 304 304 305 305 302 291 277 265 257 255 254 248 243 243 241 239 238 238 238 237
218 217 222 234 241 240 238 243 248 249 252 255 259 264 271 277 275 273 277 283 287 288 288 291 294 294 290 287 285 284 283 283 284 285 287 288 285 283 283 284 284 285 286 288 289 291 293 293 293 296 295 294 302 314 320 322 322 321 321 318 313 312 311 307 303 302 303 303 302 301 296 287 275 262 256 256 252 246 244 242 239 238 237 237 236
220 220 227 235 239 239 237 240 242 246 253 258 262 266 268 271 275 278 281 283 286 287 288 291 291 290 288 287 288 287 283 283 282 281 283 285 285 285 285 283 283 284 286 289 291 293 293 291 291 291 290 293 302 311 316 319 320 320 319 316 313 311 309 305 301 299 300 300 298 296 293 289 281 270 259 255 253 250 246 243 240 238 237 236 236
221 223 229 234 237 237 236 238 241 246 254 260 266 270 270 272 275 280 284 287 288 288 289 289 287 285 285 287 291 290 286 283 280 279 279 280 281 283 284 283 282 284 287 290 292 293 292 290 288 286 288 294 300 307 312 316 319 320 320 317 313 311 307 303 298 295 296 297 295 291 289 287 281 271 260 252 251 251 248 245 242 239 238 236 235
226 228 231 234 236 236 236 239 242 247 253 257 261 265 269 274 278 281 285 288 288 287 287 286 283 281 283 287 291 291 287 283 280 279 279 278 280 282 281 281 282 286 289 289 290 291 291 288 284 283 288 294 298 303 308 312 317 320 320 318 315 312 307 303 298 295 295 294 290 287 285 284 281 273 261 250 248 251 250 245 242 240 239 238 236
230 231 233 235 234 233 236 240 246 253 258 263 267 267 267 270 275 279 282 284 286 287 287 286 282 280 284 289 292 292 289 286 284 283 281 281 282 283 282 280 281 286 290 289 290 290 290 288 283 283 290 294 297 300 302 306 314 321 322 320 316 313 310 307 303 299 296 290 285 282 279 279 279 274 262 248 244 250 251 245 241 239 239 239 237
233 234 235 235 234 234 239 244 252 261 269 275 279 274 268 266 269 272 277 282 286 288 289 287 284 283 287 290 293 294 291 288 288 287 286 285 283 282 282 280 281 285 289 291 294 294 292 289 285 285 289 294 295 296 297 300 306 315 322 321 318 316 315 310 305 301 296 290 285 278 273 274 276 272 261 248 243 248 250 245 240 236 236 238 236
235 237 237 237 240 243 248 252 259 266 272 278 281 275 270 269 266 267 275 283 287 288 288 287 285 285 288 291 293 295 293 291 291 290 289 287 283 279 278 277 280 284 288 293 297 297 293 290 287 286 287 291 293 293 295 296 300 312 321 321 320 321 317 309 304 301 296 291 286 277 270 271 272 268 259 247 242 245 246 242 239 234 234 235 234
236 239 240 241 244 249 253 256 260 266 271 277 280 275 270 271 269 272 281 286 286 287 287 287 286 285 287 290 293 294 294 295 294 292 290 286 281 278 276 278 282 285 289 295 296 294 291 289 287 286 287 292 295 296 298 299 304 316 322 320 323 325 316 307 304 301 296 289 285 278 269 266 267 264 256 245 240 243 244 240 235 232 232 233 231
240 242 244 245 249 252 253 255 260 267 273 278 280 275 270 273 276 280 284 285 286 289 289 287 285 284 286 289 291 292 295 298 299 296 292 286 282 280 279 281 285 288 293 297 296 293 293 291 289 289 291 296 300 303 305 307 312 321 325 324 327 325 315 308 306 302 295 286 280 273 262 260 261 257 250 245 242 243 242 237 231 229 229 227 226
242 244 245 247 253 254 252 254 261 270 276 279 280 276 273 275 278 279 281 284 288 290 289 286 283 283 286 289 289 292 296 300 302 300 295 291 287 284 283 285 289 293 297 299 299 300 301 299 297 297 300 306 309 310 313 314 317 324 328 331 332 327 318 313 309 303 294 282 277 269 256 254 256 248 241 240 241 242 240 233 228 227 225 222 221
Height
1577 1577 1577 1577 1577 1577 1577 1577 1577 1576 1576 1575 1575 1575 1574 1574 1573 1573 1572 1571 1570 1569 1568 1568 1567 1566 1565 1565 1564 1564 1564 1564 1564 1564 1564 1564 1565 1565 1565 1565 1566 1565 1564 1565 1566 1567 1567 1567 1568 1568 1569 1569 1569 1569 1570 1571 1571 1572 1572 1573 1573 1574 1574 1575 1576 1577 1578 1579 1580 1580 1581 1582 1582 1583 1584 1585 1585 1586 1586 1587 1587 1588 1588 1589 1589
1576 1576 1576 1575 1575 1575 1576 1576 1576 1575 1575 1575 1574 1574 1573 1573 1572 1572 1571 1570 1569 1568 1567 1566 1566 1565 1564 1563 1563 1562 1562 1562 1562 1562 1562 1563 1564 1564 1565 1565 1565 1566 1565 1565 1565 1566 1567 1567 1567 1567 1567 1568 1568 1568 1569 1570 1570 1571 1571 1572 1573 1573 1574 1574 1575 1576 1577 1578 1579 1579 1580 1580 1581 1582 1583 1584 1585 1585 1586 1586 1587 1587 1588 1588 1589
1576 1575 1575 1574 1574 1574 1574 1575 1574 1574 1574 1573 1573 1572 1572 1571 1571 1571 1570 1569 1568 1567 1566 1565 1564 1563 1563 1562 1561 1561 1560 1560 1560 1560 1560 1561 1562 1563 1564 1564 1564 1564 1564 1564 1564 1565 1566 1567 1567 1567 1567 1567 1567 1567 1568 1568 1569 1569 1570 1571 1572 1572 1573 1573 1574 1575 1576 1577 1578 1578 1579 1579 1580 1581 1582 1583 1584 1584 1585 1585 1586 1586 1587 1587 1588
1575 1574 1574 1573 1573 1573 1573 1573 1573 1573 1572 1572 1571 1571 1570 1570 1570 1569 1568 1567 1567 1566 1565 1564 1563 1562 1561 1560 1560 1559 1559 1559 1559 1559 1559 1560 1561 1562 1563 1563 1562 1562 1563 1563 1563 1564 1565 1566 1567 1567 1567 1566 1566 1566 1566 1567 1567 1568 1569 1569 1570 1571 1572 1572 1573 1574 1575 1576 1576 1577 1577 1578 1579 1579 1580 1581 1582 1583 1584 1584 1585 1585 1586 1586 1587
1573 1573 1572 1572 1572 1572 1572 1572 1572 1571 1571 1571 1570 1570 1569 1569 1568 1568 1567 1566 1565 1565 1563 1562 1561 1560 1560 1559 1558 1558 1557 1557 1558 1558 1558 1559 1560 1561 1561 1561 1560 1560 1561 1561 1562 1563 1563 1565 1566 1566 1566 1566 1565 1565 1565 1565 1566 1566 1567 1568 1569 1570 1571 1571 1572 1573 1573 1574 1575 1576 1577 1577 1577 1578 1579 1580 1581 1582 1583 1583 1584 1584 1585 1585 1586
1572 1572 1571 1571 1571 1571 1571 1571 1570 1570 1569 1569 1569 1568 1568 1567 1567 1566 1566 1565 1564 1563 1562 1561 1560 1559 1558 1557 1556 1556 1555 1556 1556 1556 1557 1557 1558 1559 1560 1560 1558 1558 1559 1560 1560 1561 1562 1562 1563 1564 1565 1564 1564 1564 1564 1564 1564 1565 1566 1566 1567 1568 1569 1570 1571 1571 1572 1573 1574 1575 1576 1576 1576 1577 1577 1578 1579 1580 1581 1582 1583 1583 1584 1584 1584
1571 1571 1571 1571 1571 1570 1570 1570 1569 1569 1568 1568 1567 1567 1566 1566 1566 1565 1565 1564 1563 1562 1561 1560 1559 1558 1557 1556 1555 1554 1554 1554 1554 1554 1554 1555 1556 1557 1558 1558 1557 1557 1557 1558 1559 1559 1559 1560 1561 1562 1562 1561 1561 1562 1562 1563 1563 1563 1564 1565 1566 1567 1568 1569 1569 1570 1571 1571 1572 1573 1574 1575 1576 1576 1576 1577 1578 1579 1580 1581 1581 1582 1582 1583 1583
1570 1570 1570 1570 1569 1569 1569 1569 1568 1568 1567 1567 1566 1566 1566 1565 1565 1565 1564 1564 1563 1561 1560 1559 1558 1557 1557 1556 1555 1553 1553 1552 1552 1552 1552 1553 1553 1555 1556 1557 1556 1555 1556 1557 1557 1557 1558 1558 1559 1560 1559 1559 1559 1559 1560 1561 1561 1562 1562 1563 1564 1565 1566 1567 1568 1568 1569 1570 1571 1572 1573 1574 1574 1575 1575 1576 1576 1577 1578 1579 1580 1580 1581 1581 1582
1568 1568 1569 1569 1568 1568 1568 1568 1567 1567 1566 1566 1566 1565 1565 1564 1564 1563 1563 1563 1562 1560 1559 1558 1557 1556 1556 1555 1554 1553 1552 1551 1551 1551 1551 1551 1551 1552 1554 1555 1555 1554 1554 1554 1554 1555 1556 1556 1556 1557 1557 1556 1556 1557 1558 1558 1559 1560 1560 1561 1562 1563 1564 1565 1566 1567 1568 1568 1569 1570 1571 1572 1573 1573 1574 1574 1575 1576 1576 1577 1578 1579 1579 1580 1580
1564 1566 1567 1568 1568 1567 1567 1567 1566 1566 1566 1565 1565 1564 1564 1563 1563 1562 1562 1561 1560 1559 1558 1557 1556 1555 1554 1554 1553 1552 1552 1551 1550 1550 1550 1550 1550 1551 1552 1553 1553 1553 1553 1552 1552 1552 1554 1554 1554 1555 1554 1554 1555 1556 1557 1556 1556 1557 1558 1559 1560 1561 1562 1563 1564 1565 1566 1567 1567 1568 1569 1570 1571 1572 1572 1573 1574 1574 1575 1576 1576 1577 1577 1578 1579
1563 1565 1566 1566 1566 1566 1566 1566 1566 1565 1565 1564 1564 1563 1563 1562 1562 1561 1561 1560 1559 1558 1557 1556 1555 1554 1553 1553 1553 1552 1551 1551 1550 1550 1549 1549 1549 1549 1550 1550 1551 1552 1552 1551 1551 1551 1551 1552 1552 1552 1552 1552 1553 1554 1554 1554 1553 1554 1555 1556 1558 1559 1559 1560 1561 1562 1563 1565 1566 1567 1568 1568 1569 1570 1570 1571 1572 1572 1573 1574 1574 1575 1576 1576 1577
1562 1564 1565 1565 1565 1565 1565 1565 1564 1564 1564 1564 1563 1562 1562 1561 1561 1560 1559 1559 1558 1557 1556 1555 1554 1553 1552 1552 1552 1551 1551 1550 1550 1549 1548 1548 1548 1547 1547 1548 1549 1550 1551 1550 1550 1550 1550 1550 1549 1549 1549 1550 1551 1551 1551 1551 1551 1552 1553 1554 1555 1557 1557 1558 1558 1559 1561 1562 1564 1565 1566 1566 1567 1568 1568 1569 1570 1570 1571 1572 1573 1573 1574 1575 1575
1561 1563 1563 1563 1563 1563 1563 1563 1563 1563 1563 1562 1562 1561 1561 1561 1560 1559 1558 1557 1557 1557 1555 1554 1553 1552 1551 1551 1551 1550 1550 1549 1549 1549 1548 1547 1546 1546 1546 1546 1547 1548 1549 1549 1549 1549 1549 1548 1548 1547 1547 1547 1547 1548 1548 1548 1549 1549 1550 1552 1553 1554 1555 1556 1556 1556 1558 1559 1561 1562 1563 1564 1565 1565 1566 1567 1567 1568 1569 1570 1570 1571 1572 1573 1573
1560 1561 1561 1561 1561 1561 1561 1562 1561 1561 1561 1561 1561 1560 1560 1559 1559 1558 1557 1556 1556 1556 1555 1553 1552 1551 1550 1549 1549 1549 1549 1549 1549 1548 1547 1546 1545 1545 1544 1544 1545 1546 1547 1547 1547 1547 1546 1547 1546 1546 1545 1544 1545 1545 1545 1545 1546 1546 1547 1548 1549 1550 1551 1553 1554 1554 1555 1556 1557 1559 1560 1561 1562 1563 1563 1564 1565 1565 1566 1567 1568 1569 1569 1570 1571
1558 1559 1559 1559 1559 1560 1560 1559 1559 1559 1559 1559 1559 1559 1559 1558 1557 1557 1556 1556 1555 1555 1554 1553 1552 1552 1550 1549 1548 1548 1547 1548 1548 1547 1546 1546 1545 1544 1544 1544 1544 1545 1545 1545 1545 1544 1544 1544 1544 1543 1543 1542 1542 1543 1543 1543 1543 1544 1544 1544 1545 1546 1548 1549 1550 1551 1552 1552 1553 1554 1555 1557 1559 1559 1560 1561 1561 1562 1563 1564 1565 1566 1567 1567 1568
1557 1557 1558 1558 1558 1559 1558 1558 1558 1558 1558 1558 1558 1558 1558 1557 1557 1556 1556 1555 1555 1554 1554 1553 1552 1552 1551 1549 1548 1547 1546 1546 1546 1546 1546 1546 1545 1544 1543 1543 1543 1544 1544 1544 1544 1543 1543 1542 1541 1541 1541 1540 1540 1541 1541 1541 1542 1542 1541 1541 1542 1544 1545 1546 1547 1547 1548 1549 1550 1550 1552 1553 1554 1555 1556 1557 1558 1559 1560 1561 1562 1563 1564 1565 1565
1556 1556 1557 1557 1557 1557 1557 1557 1557 1557 1557 1557 1557 1557 1557 1557 1556 1556 1555 1554 1554 1554 1553 1553 1552 1551 1551 1550 1549 1548 1547 1546 1546 1546 1546 1545 1544 1544 1543 1543 1542 1542 1542 1543 1543 1542 1542 1541 1540 1540 1540 1540 1540 1540 1540 1540 1540 1541 1540 1539 1539 1540 1541 1542 1543 1543 1544 1546 1547 1547 1549 1550 1550 1551 1552 1553 1554 1555 1556 1557 1558 1559 1560 1561 1562
1555 1556 1556 1556 1556 1556 1556 1556 1556 1556 1556 1557 1557 1557 1557 1556 1556 1555 1555 1554 1553 1553 1552 1552 1552 1551 1551 1550 1549 1549 1548 1547 1546 1545 1545 1545 1544 1543 1543 1542 1541 1541 1541 1541 1541 1541 1540 1540 1539 1539 1538 1538 1538 1538 1537 1537 1538 1538 1539 1538 1538 1537 1538 1538 1539 1540 1541 1542 1543 1544 1545 1546 1547 1547 1548 1549 1550 1551 1552 1553 1554 1556 1557 1558 1559
1555 1555 1555 1555 1555 1555 1556 1556 1556 1556 1556 1556 1556 1556 1556 1555 1555 1555 1554 1553 1553 1552 1551 1551 1551 1551 1551 1550 1549 1549 1548 1547 1546 1545 1544 1544 1544 1543 1543 1542 1541 1540 1539 1539 1539 1538 1538 1538 1537 1537 1536 1536 1535 1535 1535 1534 1534 1534 1535 1535 1535 1534 1535 1535 1536 1536 1537 1538 1539 1540 1540 1541 1542 1543 1543 1545 1546 1548 1549 1550 1551 1552 1553 1554 1555
1554 1554 1554 1554 1554 1554 1555 1555 1555 1555 1555 1555 1555 1554 1554 1554 1554 1554 1553 1553 1552 1551 1551 1551 1550 1550 1550 1550 1549 1549 1548 1547 1547 1546 1544 1543 1542 1542 1542 1541 1541 1540 1539 1538 1537 1537 1536 1536 1535 1534 1534 1533 1533 1532 1532 1531 1531 1530 1530 1530 1531 1531 1531 1532 1532 1533 1534 1535 1535 1536 1536 1537 1537 1538 1539 1540 1542 1544 1546 1547 1547 1548 1549 1550 1551
1553 1553 1553 1553 1553 1553 1554 1554 1554 1554 1554 1554 1554 1554 1553 1553 1553 1553 1553 1552 1552 1551 1551 1550 1550 1550 1550 1549 1549 1549 1548 1547 1546 1546 1545 1543 1542 1541 1540 1539 1539 1539 1538 1537 1537 1536 1535 1534 1533 1532 1531 1531 1530 1530 1529 1528 1527 1526 1526 1526 1526 1527 1527 1528 1529 1529 1530 1530 1531 1532 1532 1533 1534 1534 1535 1536 1538 1540 1542 1543 1544 1544 1545 1546 1547
1553 1553 1553 1553 1553 1552 1553 1553 1553 1553 1553 1553 1553 1552 1552 1552 1552 1552 1552 1552 1552 1551 1551 1550 1549 1549 1549 1549 1548 1548 1548 1547 1546 1545 1544 1543 1542 1540 1539 1538 1537 1537 1537 1536 1536 1535 1534 1532 1531 1530 1529 1528 1527 1527 1526 1526 1525 1524 1523 1522 1522 1522 1523 1524 1525 1525 1526 1526 1527 1527 1527 1528 1529 1530 1530 1532 1534 1536 1537 1538 1539 1541 1541 1542 1543
1552 1552 1552 1552 1552 1552 1552 1552 1552 1552 1552 1552 1551 1551 1551 1551 1551 1551 1551 1551 1551 1551 1550 1550 1549 1549 1548 1548 1548 1547 1547 1546 1545 1544 1543 1542 1541 1540 1539 1538 1537 1536 1535 1534 1534 1534 1533 1531 1530 1528 1527 1526 1525 1524 1524 1523 1523 1522 1521 1520 1520 1519 1519 1520 1521 1521 1522 1522 1523 1523 1523 1524 1525 1526 1526 1528 1529 1531 1532 1533 1535 1536 1537 1538 1539
1551 1551 1551 1551 1551 1551 1551 1552 1551 1551 1551 1551 1550 1550 1550 1550 1550 1550 1550 1550 1550 1550 1549 1549 1548 1548 1548 1547 1547 1546 1546 1545 1544 1543 1543 1542 1540 1539 1538 1537 1536 1535 1534 1533 1532 1531 1531 1530 1528 1527 1526 1525 1524 1523 1522 1521 1520 1519 1518 1517 1517 1517 1516 1516 1516 1517 1517 1518 1518 1518 1519 1519 1520 1521 1522 1523 1525 1526 1528 1529 1530 1531 1533 1534 1535
1550 1550 1550 1550 1550 1550 1551 1551 1551 1551 1551 1550 1550 1549 1549 1549 1549 1549 1549 1549 1549 1549 1548 1548 1548 1547 1547 1547 1546 1546 1545 1544 1543 1543 1542 1541 1539 1538 1537 1536 1535 1533 1532 1531 1530 1529 1529 1528 1526 1525 1524 1523 1522 1521 1520 1519 1517 1516 1515 1514 1514 1513 1513 1513 1513 1512 1513 1513 1514 1514 1514 1514 1515 1517 1518 1519 1520 1521 1523 1524 1525 1527 1528 1529 1531
1548 1548 1549 1549 1549 1549 1550 1550 1550 1550 1550 1550 1549 1549 1548 1548 1548 1548 1548 1548 1548 1548 1547 1547 1547 1547 1547 1546 1546 1545 1544 1543 1543 1542 1541 1540 1539 1537 1536 1535 1533 1532 1531 1529 1528 1527 1526 1525 1524 1523 1522 1521 1520 1519 1518 1517 1515 1514 1512 1511 1510 1510 1510 1509 1509 1509 1509 1509 1509 1509 1509 1510 1510 1511 1512 1513 1514 1516 1517 1519 1521 1522 1524 1525 1527
1546 1547 1547 1547 1548 1548 1549 1549 1549 1549 1549 1549 1549 1548 1548 1547 1547 1547 1547 1547 1547 1546 1547 1546 1546 1546 1546 1546 1545 1545 1544 1543 1542 1541 1540 1539 1538 1537 1535 1533 1531 1530 1528 1527 1526 1525 1524 1523 1522 1521 1519 1518 1518 1517 1516 1515 1513 1512 1510 1508 1506 1506 1505 1505 1505 1505 1504 1504 1504 1504 1504 1504 1505 1506 1506 1507 1508 1510 1512 1514 1515 1517 1519 1521 1522
1544 1545 1545 1546 1546 1547 1547 1548 1548 1548 1548 1548 1548 1547 1547 1546 1546 1546 1546 1545 1545 1545 1545 1545 1545 1545 1544 1544 1544 1543 1543 1542 1541 1540 1539 1538 1537 1536 1535 1533 1531 1528 1526 1524 1523 1522 1522 1520 1518 1518 1517 1516 1515 1514 1513 1512 1511 1509 1507 1506 1503 1502 1501 1500 1500 1500 1500 1500 1499 1499 1499 1499 1499 1500 1501 1502 1503 1504 1506 1508 1509 1511 1514 1515 1517
1543 1543 1544 1544 1544 1545 1546 1546 1547 1547 1547 1547 1546 1546 1545 1545 1544 1544 1544 1543 1543 1543 1543 1543 1543 1542 1542 1541 1541 1541 1541 1540 1539 1538 1537 1537 1536 1535 1534 1533 1531 1529 1526 1523 1520 1520 1520 1519 1516 1515 1515 1514 1512 1511 1510 1509 1508 1506 1504 1503 1501 1499 1497 1496 1495 1494 1494 1494 1494 1494 1494 1494 1494 1494 1495 1496 1497 1498 1500 1502 1504 1506 1508 1510 1512
1541 1541 1542 1542 1543 1543 1544 1545 1545 1546 1546 1545 1545 1545 1544 1544 1543 1543 1542 1542 1541 1541 1541 1541 1541 1540 1540 1539 1539 1539 1538 1537 1537 1537 1536 1535 1534 1534 1533 1532 1530 1529 1526 1522 1519 1518 1518 1518 1516 1513 1512 1511 1510 1509 1508 1506 1505 1503 1501 1499 1498 1496 1494 1493 1491 1490 1489 1489 1489 1489 1489 1489 1489 1489 1490 1490 1491 1493 1494 1496 1497 1500 1502 1504 1506
1539 1540 1540 1540 1541 1541 1542 1543 1544 1544 1544 1544 1544 1543 1543 1542 1542 1541 1541 1540 1540 1539 1539 1539 1539 1538 1538 1537 1537 1536 1535 1534 1534 1534 1533 1533 1532 1532 1531 1530 1529 1528 1526 1523 1519 1516 1516 1516 1514 1513 1511 1509 1508 1506 1505 1503 1502 1500 1498 1496 1495 1493 1491 1489 1487 1486 1485 1484 1484 1484 1484 1484 1484 1484 1484 1485 1486 1487 1489 1490 1492 1493 1496 1498 1501
1537 1538 1538 1539 1539 1539 1540 1541 1542 1542 1542 1542 1542 1542 1541 1541 1540 1539 1539 1538 1538 1537 1537 1537 1537 1536 1536 1535 1535 1534 1533 1532 1532 1532 1531 1530 1530 1530 1529 1528 1527 1526 1524 1523 1518 1515 1515 1514 1513 1512 1510 1507 1506 1504 1502 1500 1499 1497 1495 1493 1491 1489 1487 1485 1483 1482 1480 1479 1479 1478 1478 1478 1478 1479 1479 1480 1481 1482 1483 1485 1486 1488 1490 1492 1495
1535 1536 1536 1537 1537 1537 1538 1538 1539 1540 1540 1540 1540 1540 1539 1539 1538 1537 1537 1536 1536 1536 1535 1535 1535 1534 1533 1533 1532 1531 1531 1530 1530 1530 1529 1528 1528 1527 1527 1526 1525 1524 1522 1521 1517 1514 1512 1513 1511 1510 1509 1506 1504 1502 1500 1496 1495 1493 1491 1489 1487 1486 1483 1481 1478 1477 1476 1474 1473 1473 1473 1473 1473 1473 1473 1474 1475 1476 1478 1479 1481 1483 1484 1486 1489
1533 1534 1535 1535 1535 1535 1535 1536 1536 1537 1537 1538 1538 1538 1537 1537 1536 1535 1534 1534 1533 1533 1533 1533 1532 1532 1531 1530 1529 1529 1528 1527 1527 1527 1527 1526 1525 1525 1524 1523 1522 1521 1520 1518 1516 1513 1510 1509 1509 1508 1507 1505 1502 1500 1498 1495 1492 1489 1486 1484 1483 1481 1479 1477 1474 1472 1470 1469 1468 1467 1467 1467 1467 1467 1468 1468 1469 1470 1472 1474 1475 1477 1479 1481 1483
1531 1532 1533 1534 1534 1533 1533 1533 1533 1534 1535 1535 1535 1535 1535 1534 1533 1533 1532 1531 1531 1531 1530 1530 1530 1529 1528 1527 1527 1527 1526 1525 1525 1525 1524 1523 1523 1522 1521 1520 1519 1518 1517 1516 1514 1511 1508 1506 1506 1505 1504 1503 1500 1498 1496 1493 1490 1487 1483 1480 1478 1476 1474 1472 1470 1467 1465 1464 1463 1462 1461 1461 1461 1462 1462 1462 1464 1465 1466 1468 1470 1472 1474 1475 1477
1529 1530 1531 1532 1532 1531 1531 1530 1531 1531 1532 1533 1533 1533 1532 1531 1531 1530 1529 1529 1528 1528 1528 1528 1528 1527 1526 1525 1525 1524 1524 1523 1522 1522 1521 1521 1520 1519 1518 1517 1516 1515 1514 1513 1512 1510 1507 1504 1503 1502 1501 1500 1497 1495 1493 1490 1487 1484 1481 1477 1474 1471 1468 1467 1464 1462 1460 1459 1458 1456 1455 1455 1455 1455 1456 1457 1458 1459 1460 1462 1464 1466 1468 1470 1472
1527 1528 1529 1530 1530 1530 1529 1528 1528 1529 1530 1530 1530 1530 1529 1528 1528 1527 1527 1526 1526 1526 1526 1526 1526 1525 1525 1524 1523 1522 1521 1520 1520 1519 1518 1518 1517 1516 1515 1513 1512 1511 1511 1510 1509 1507 1505 1502 1500 1499 1499 1497 1494 1493 1491 1488 1483 1480 1477 1473 1470 1467 1463 1461 1459 1457 1455 1453 1452 1450 1449 1449 1449 1449 1450 1451 1452 1453 1454 1456 1458 1460 1462 1464 1467
1525 1525 1526 1527 1528 1528 1527 1526 1526 1527 1527 1528 1528 1527 1527 1526 1525 1525 1524 1524 1524 1524 1524 1524 1524 1523 1523 1522 1521 1520 1519 1518 1517 1517 1516 1515 1514 1513 1512 1511 1510 1509 1507 1507 1506 1504 1503 1500 1498 1496 1495 1494 1491 1489 1489 1486 1481 1476 1472 1467 1464 1462 1459 1455 1452 1451 1450 1448 1446 1445 1443 1442 1443 1443 1444 1445 1446 1447 1449 1450 1452 1454 1456 1458 1461
1522 1523 1524 1525 1525 1525 1525 1524 1524 1525 1525 1526 1526 1525 1525 1524 1523 1523 1522 1522 1522 1522 1522 1522 1522 1521 1520 1519 1519 1518 1517 1516 1515 1514 1513 1512 1511 1510 1509 1508 1507 1506 1505 1504 1503 1501 1499 1498 1496 1494 1492 1490 1488 1486 1485 1483 1479 1475 1470 1464 1457 1456 1455 1451 1447 1445 1444 1442 1440 1439 1438 1437 1436 1437 1437 1438 1440 1441 1443 1444 1446 1448 1450 1453 1455
1520 1520 1521 1522 1523 1523 1523 1522 1522 1523 1523 1524 1524 1524 1523 1522 1522 1521 1520 1520 1520 1520 1520 1520 1519 1519 1518 1517 1516 1515 1514 1513 1512 1512 1511 1510 1509 1507 1506 1505 1504 1503 1502 1501 1499 1498 1497 1495 1493 1491 1489 1487 1485 1483 1481 1479 1475 1471 1470 1464 1455 1450 1449 1446 1442 1440 1438 1435 1433 1432 1431 1431 1430 1431 1432 1432 1433 1435 1437 1439 1441 1442 1445 1447 1449
1518 1518 1519 1520 1521 1521 1520 1520 1520 1521 1522 1522 1522 1522 1521 1520 1520 1519 1518 1518 1517 1517 1517 1517 1517 1516 1516 1515 1514 1513 1512 1511 1510 1509 1508 1507 1506 1504 1503 1502 1501 1500 1499 1498 1496 1495 1493 1491 1490 1488 1487 1484 1482 1480 1477 1475 1472 1468 1465 1462 1454 1447 1444 1440 1436 1436 1434 1431 1428 1426 1425 1425 1425 1425 1426 1427 1427 1430 1432 1433 1435 1437 1439 1441 1443
1516 1517 1517 1518 1519 1519 1518 1518 1518 1519 1520 1520 1520 1520 1519 1518 1518 1517 1516 1516 1515 1515 1515 1515 1514 1514 1513 1512 1511 1510 1509 1508 1507 1506 1505 1505 1503 1501 1500 1499 1498 1497 1496 1495 1493 1492 1490 1488 1486 1485 1483 1481 1479 1477 1473 1471 1469 1465 1461 1458 1451 1444 1441 1436 1429 1429 1430 1428 1424 1420 1419 1420 1420 1419 1420 1421 1422 1424 1426 1427 1429 1431 1433 1436 1438
1514 1515 1516 1516 1516 1516 1516 1515 1516 1516 1517 1518 1518 1518 1517 1516 1516 1515 1514 1514 1513 1513 1513 1512 1512 1511 1510 1509 1508 1507 1506 1505 1504 1503 1502 1502 1500 1499 1498 1497 1496 1494 1493 1492 1490 1489 1487 1484 1483 1482 1479 1477 1475 1474 1471 1467 1465 1462 1458 1454 1449 1442 1437 1433 1426 1422 1424 1425 1422 1416 1412 1414 1415 1414 1413 1415 1416 1418 1419 1421 1424 1426 1428 1431 1434
1512 1513 1514 1514 1514 1514 1513 1513 1513 1514 1515 1515 1515 1516 1515 1514 1514 1513 1512 1512 1511 1511 1510 1509 1509 1508 1507 1506 1505 1504 1503 1502 1501 1500 1499 1499 1498 1497 1495 1494 1493 1492 1491 1489 1487 1486 1484 1481 1479 1478 1476 1473 1472 1470 1468 1464 1460 1457 1453 1449 1445 1440 1434 1430 1424 1417 1417 1420 1418 1411 1406 1406 1409 1408 1407 1408 1410 1412 1413 1415 1418 1421 1423 1426 1429
1510 1511 1511 1512 1512 1512 1511 1511 1511 1512 1512 1513 1513 1513 1512 1512 1511 1510 1510 1509 1509 1508 1508 1507 1506 1505 1504 1503 1502 1501 1500 1499 1498 1498 1497 1496 1495 1494 1493 1491 1490 1489 1488 1486 1485 1483 1481 1478 1475 1474 1472 1471 1468 1466 1465 1462 1457 1452 1448 1443 1440 1435 1429 1425 1419 1413 1411 1413 1412 1407 1400 1399 1402 1403 1400 1402 1405 1406 1408 1410 1412 1415 1418 1421 1424
1508 1508 1509 1509 1510 1510 1509 1509 1509 1510 1510 1511 1511 1510 1509 1509 1508 1508 1507 1507 1506 1506 1505 1504 1503 1502 1501 1500 1499 1498 1497 1496 1496 1495 1494 1493 1492 1491 1490 1488 1487 1486 1485 1483 1482 1479 1477 1475 1472 1470 1469 1468 1465 1462 1461 1459 1455 1449 1444 1438 1433 1428 1423 1417 1412 1408 1405 1405 1406 1402 1395 1392 1396 1397 1394 1396 1400 1401 1403 1405 1407 1410 1413 1415 1418
1505 1506 1507 1507 1507 1507 1507 1507 1508 1508 1509 1509 1509 1508 1507 1506 1506 1505 1505 1504 1504 1503 1503 1502 1500 1499 1498 1497 1496 1495 1494 1493 1493 1492 1491 1490 1488 1487 1486 1484 1483 1482 1480 1479 1478 1476 1473 1471 1469 1467 1466 1464 1462 1459 1457 1455 1451 1447 1442 1436 1428 1422 1415 1409 1404 1401 1397 1396 1398 1396 1389 1386 1391 1391 1388 1391 1395 1396 1398 1400 1401 1405 1408 1410 1413
1503 1504 1504 1505 1505 1504 1505 1505 1506 1506 1506 1507 1506 1505 1504 1504 1503 1502 1502 1502 1501 1501 1500 1499 1498 1497 1495 1494 1493 1492 1491 1490 1490 1488 1487 1486 1485 1483 1482 1480 1479 1477 1476 1475 1474 1472 1469 1468 1466 1464 1462 1461 1459 1456 1454 1451 1447 1443 1438 1431 1424 1417 1410 1402 1397 1393 1389 1387 1389 1389 1383 1381 1384 1385 1383 1387 1391 1392 1393 1395 1396 1399 1403 1405 1408
1500 1501 1502 1502 1502 1502 1502 1503 1503 1503 1504 1504 1504 1502 1502 1501 1501 1500 1500 1499 1498 1498 1497 1496 1495 1494 1493 1491 1490 1489 1488 1487 1486 1485 1484 1482 1481 1480 1478 1477 1475 1473 1472 1471 1470 1468 1466 1464 1462 1460 1458 1457 1455 1453 1450 1448 1444 1440 1434 1425 1418 1412 1405 1397 1391 1385 1381 1379 1380 1381 1378 1376 1378 1379 1380 1383 1387 1388 1389 1390 1392 1395 1398 1400 1403
1497 1498 1499 1499 1499 1499 1498 1498 1500 1501 1501 1501 1500 1499 1499 1498 1498 1497 1497 1496 1495 1495 1495 1494 1493 1492 1490 1489 1487 1486 1485 1484 1483 1482 1480 1479 1478 1477 1475 1473 1471 1469 1468 1467 1465 1463 1461 1460 1458 1457 1455 1454 1452 1450 1447 1444 1441 1437 1431 1422 1414 1408 1400 1393 1385 1379 1374 1371 1372 1373 1372 1371 1373 1375 1376 1379 1382 1383 1384 1386 1388 1391 1394 1396 1398
1494 1495 1496 1496 1496 1496 1495 1496 1498 1499 1499 1498 1497 1496 1496 1495 1495 1494 1494 1493 1493 1492 1492 1491 1490 1489 1487 1486 1485 1484 1482 1481 1480 1479 1477 1476 1475 1474 1472 1470 1468 1466 1464 1463 1461 1458 1457 1455 1454 1453 1452 1450 1448 1446 1443 1439 1436 1433 1428 1420 1412 1404 1395 1387 1381 1375 1368 1364 1364 1366 1367 1366 1368 1370 1373 1376 1378 1378 1381 1383 1384 1386 1389 1392 1394